Weather History for KDVL - October, 2013

Change the Weather History Date:

Friday, October 18, 2013

  Actual Average Record
Temperature  
Mean Temperature 38 °F -  
Max Temperature 44 °F 52 °F 77 °F (1956)
Min Temperature 32 °F 29 °F 8 °F (1972)
Degree Days  
Heating Degree Days 27    
Moisture  
Dew Point 30 °F    
Average Humidity 73    
Maximum Humidity 87    
Minimum Humidity 61    
Precipitation  
Precipitation 0.04 in - - ()
Sea Level Pressure  
Sea Level Pressure 29.86 in    
Wind  
Wind Speed 10 mph (WNW)    
Max Wind Speed 21 mph    
Max Gust Speed 26 mph    
Visibility 10 miles    
Events      
Averages and records for this station are not official NWS values.
T = Trace of Precipitation, MM = Missing Value Source: NWS Daily Summary

Daily Weather History Graph

Daily Weather History Graph

Search for Another Location

Airport or City:

Trip Planner

Search our weather history database for the weather conditions in past years. The results will help you decide how hot, cold, wet, or windy it might be!

Date:

Astronomy

Oct. 18, 2013 Rise Set
Actual Time 7:59 AM CDT 6:40 PM CDT
Civil Twilight 7:28 AM CDT 7:12 PM CDT
Nautical Twilight 6:52 AM CDT 7:48 PM CDT
Astronomical Twilight 6:16 AM CDT 8:24 PM CDT
Moon 6:29 PM CDT (10/18) 7:37 AM CDT (10/18)
Length of Visible Light 11h 43m
Length of Day
10h 40m
Full, 100% of the Moon is Illuminated
Oct 18
Full
Oct 18
Full
Oct 26
Last Quarter
Nov 3
New
Nov 9
First Quarter

Hourly Weather History & Observations

Time (CDT) Temp. Windchill Dew Point Humidity Pressure Visibility Wind Dir Wind Speed Gust Speed Precip Events Conditions
12:15 AM 37.4 °F 30.3 °F 30.2 °F 75% 29.93 in 10.0 mi West 10.4 mph - N/A   Overcast
12:35 AM 37.4 °F 30.3 °F 30.2 °F 75% 29.93 in 10.0 mi West 10.4 mph - N/A   Scattered Clouds
12:55 AM 37.4 °F 30.8 °F 28.4 °F 70% 29.92 in 10.0 mi West 9.2 mph - N/A   Clear
1:15 AM 37.4 °F 30.8 °F 28.4 °F 70% 29.92 in 10.0 mi WNW 9.2 mph - N/A   Mostly Cloudy
1:35 AM 37.4 °F 31.4 °F 28.4 °F 70% 29.93 in 10.0 mi WNW 8.1 mph - N/A   Scattered Clouds
1:55 AM 35.6 °F 29.2 °F 28.4 °F 75% 29.93 in 10.0 mi WNW 8.1 mph - N/A   Clear
2:15 AM 35.6 °F 28.6 °F 28.4 °F 75% 29.93 in 10.0 mi WNW 9.2 mph - N/A   Mostly Cloudy
2:35 AM 35.6 °F 29.2 °F 28.4 °F 75% 29.93 in 10.0 mi WNW 8.1 mph - N/A   Overcast
2:55 AM 35.6 °F 29.2 °F 28.4 °F 75% 29.92 in 10.0 mi WNW 8.1 mph - N/A   Overcast
3:15 AM 35.6 °F 29.2 °F 28.4 °F 75% 29.92 in 10.0 mi NW 8.1 mph - N/A   Mostly Cloudy
3:35 AM 35.6 °F 28.6 °F 28.4 °F 75% 29.92 in 10.0 mi WNW 9.2 mph - N/A   Scattered Clouds
3:55 AM 35.6 °F 29.2 °F 28.4 °F 75% 29.92 in 10.0 mi WNW 8.1 mph - N/A   Mostly Cloudy
4:15 AM 35.6 °F 29.9 °F 28.4 °F 75% 29.92 in 10.0 mi WNW 6.9 mph - N/A   Overcast
4:35 AM 33.8 °F 27.7 °F 28.4 °F 81% 29.91 in 10.0 mi WNW 6.9 mph - N/A   Overcast
4:55 AM 33.8 °F 27.7 °F 28.4 °F 81% 29.91 in 10.0 mi WNW 6.9 mph - N/A   Overcast
5:15 AM 33.8 °F 28.6 °F 26.6 °F 75% 29.92 in 10.0 mi NW 5.8 mph - N/A   Scattered Clouds
5:35 AM 33.8 °F 27.7 °F 26.6 °F 75% 29.92 in 10.0 mi WNW 6.9 mph - N/A   Clear
5:55 AM 32.0 °F 26.4 °F 26.6 °F 80% 29.92 in 10.0 mi West 5.8 mph - N/A   Clear
6:15 AM 32.0 °F 24.8 °F 26.6 °F 80% 29.92 in 10.0 mi West 8.1 mph - N/A   Clear
6:35 AM 33.8 °F 27.0 °F 26.6 °F 75% 29.92 in 10.0 mi West 8.1 mph - N/A   Clear
6:55 AM 33.8 °F 28.6 °F 26.6 °F 75% 29.92 in 10.0 mi WNW 5.8 mph - N/A   Clear
7:15 AM 33.8 °F 27.7 °F 26.6 °F 75% 29.92 in 10.0 mi West 6.9 mph - N/A   Mostly Cloudy
7:35 AM 33.8 °F 26.4 °F 26.6 °F 75% 29.92 in 10.0 mi West 9.2 mph - N/A   Mostly Cloudy
7:55 AM 33.8 °F 27.0 °F 26.6 °F 75% 29.92 in 10.0 mi West 8.1 mph - N/A   Partly Cloudy
8:15 AM 33.8 °F 26.4 °F 26.6 °F 75% 29.92 in 10.0 mi West 9.2 mph - N/A   Partly Cloudy
8:35 AM 33.8 °F 27.0 °F 26.6 °F 75% 29.92 in 10.0 mi West 8.1 mph - N/A   Partly Cloudy
8:55 AM 33.8 °F 26.4 °F 28.4 °F 81% 29.92 in 10.0 mi West 9.2 mph - N/A   Mostly Cloudy
9:15 AM 35.6 °F 28.6 °F 28.4 °F 75% 29.92 in 10.0 mi WNW 9.2 mph - N/A   Partly Cloudy
9:35 AM 35.6 °F 29.2 °F 28.4 °F 75% 29.92 in 10.0 mi WNW 8.1 mph - N/A   Mostly Cloudy
9:55 AM 37.4 °F 30.3 °F 28.4 °F 70% 29.92 in 10.0 mi WNW 10.4 mph - N/A   Overcast
10:15 AM 37.4 °F 30.8 °F 30.2 °F 75% 29.91 in 10.0 mi West 9.2 mph - N/A   Overcast
10:35 AM 39.2 °F 32.5 °F 30.2 °F 70% 29.91 in 10.0 mi West 10.4 mph - N/A   Overcast
10:55 AM 39.2 °F 31.6 °F 30.2 °F 70% 29.91 in 10.0 mi West 12.7 mph - N/A   Overcast
11:15 AM 39.2 °F 30.8 °F 30.2 °F 70% 29.91 in 10.0 mi West 15.0 mph - N/A   Overcast
11:35 AM 39.2 °F 30.5 °F 30.2 °F 70% 29.91 in 10.0 mi West 16.1 mph - N/A   Overcast
11:55 AM 39.2 °F 31.2 °F 30.2 °F 70% 29.90 in 10.0 mi West 13.8 mph - N/A   Overcast
12:15 PM 39.2 °F 31.6 °F 32.0 °F 75% 29.89 in 10.0 mi West 12.7 mph - N/A   Overcast
12:35 PM 41.0 °F 33.1 °F 32.0 °F 70% 29.89 in 10.0 mi West 15.0 mph - N/A   Overcast
12:55 PM 41.0 °F 33.5 °F 33.8 °F 76% 29.88 in 10.0 mi West 13.8 mph 20.7 mph N/A   Overcast
1:15 PM 41.0 °F 32.5 °F 32.0 °F 70% 29.88 in 9.0 mi West 17.3 mph 20.7 mph N/A   Overcast
1:35 PM 42.8 °F 34.8 °F 33.8 °F 70% 29.86 in 10.0 mi West 17.3 mph 23.0 mph N/A   Overcast
1:55 PM 42.8 °F 34.3 °F 33.8 °F 70% 29.85 in 10.0 mi WNW 19.6 mph 24.2 mph N/A   Overcast
2:15 PM 44.6 °F 37.2 °F 32.0 °F 61% 29.84 in 10.0 mi West 17.3 mph - N/A   Overcast
2:35 PM 44.6 °F 36.9 °F 32.0 °F 61% 29.84 in 10.0 mi WNW 18.4 mph 23.0 mph N/A   Overcast
2:55 PM 44.6 °F 37.2 °F 32.0 °F 61% 29.83 in 10.0 mi WNW 17.3 mph - N/A   Overcast
3:15 PM 44.6 °F 36.4 °F 32.0 °F 61% 29.82 in 10.0 mi WNW 20.7 mph 26.5 mph N/A   Mostly Cloudy
3:35 PM 42.8 °F 37.0 °F 33.8 °F 70% 29.82 in 10.0 mi NW 10.4 mph - N/A   Mostly Cloudy
3:55 PM 42.8 °F 34.8 °F 32.0 °F 66% 29.81 in 10.0 mi NW 17.3 mph - N/A   Overcast
4:15 PM 41.0 °F 33.1 °F 32.0 °F 70% 29.81 in 10.0 mi West 15.0 mph - N/A   Overcast
4:35 PM 42.8 °F 35.1 °F 33.8 °F 70% 29.80 in 10.0 mi West 16.1 mph - N/A   Mostly Cloudy
4:55 PM 41.0 °F 32.8 °F 33.8 °F 76% 29.80 in 10.0 mi West 16.1 mph - N/A   Partly Cloudy
5:15 PM 42.8 °F 35.4 °F 33.8 °F 70% 29.79 in 10.0 mi West 15.0 mph - N/A   Clear
5:35 PM 42.8 °F 35.8 °F 32.0 °F 66% 29.79 in 10.0 mi West 13.8 mph - N/A   Clear
5:55 PM 42.8 °F 37.0 °F 30.2 °F 61% 29.79 in 10.0 mi West 10.4 mph - N/A   Clear
6:15 PM 41.0 °F 33.9 °F 32.0 °F 70% 29.79 in 10.0 mi West 12.7 mph - N/A   Mostly Cloudy
6:35 PM 41.0 °F 34.3 °F 32.0 °F 70% 29.78 in 10.0 mi West 11.5 mph - N/A   Overcast
6:55 PM 41.0 °F 33.9 °F 32.0 °F 70% 29.78 in 10.0 mi West 12.7 mph - N/A   Overcast
7:15 PM 41.0 °F 34.3 °F 32.0 °F 70% 29.78 in 10.0 mi West 11.5 mph 17.3 mph N/A   Overcast
7:35 PM 41.0 °F 33.1 °F 32.0 °F 70% 29.78 in 10.0 mi West 15.0 mph - N/A   Overcast
7:55 PM 41.0 °F 32.8 °F 32.0 °F 70% 29.77 in 10.0 mi West 16.1 mph - N/A   Overcast
8:15 PM 41.0 °F 33.5 °F 32.0 °F 70% 29.77 in 10.0 mi WNW 13.8 mph - N/A   Overcast
8:35 PM 39.2 °F 31.6 °F 33.8 °F 81% 29.76 in 10.0 mi West 12.7 mph - N/A   Overcast
8:55 PM 39.2 °F 32.5 °F 33.8 °F 81% 29.76 in 10.0 mi West 10.4 mph - N/A   Overcast
9:15 PM 39.2 °F 32.5 °F 32.0 °F 75% 29.75 in 10.0 mi West 10.4 mph - N/A   Mostly Cloudy
9:35 PM 39.2 °F 34.2 °F 32.0 °F 75% 29.74 in 10.0 mi West 6.9 mph - N/A   Mostly Cloudy
9:55 PM 39.2 °F 32.0 °F 33.8 °F 81% 29.74 in 10.0 mi WSW 11.5 mph - N/A   Mostly Cloudy
10:15 PM 39.2 °F 33.0 °F 33.8 °F 81% 29.73 in 10.0 mi WSW 9.2 mph - N/A   Overcast
10:35 PM 39.2 °F 33.0 °F 33.8 °F 81% 29.73 in 10.0 mi WSW 9.2 mph - N/A   Mostly Cloudy
10:55 PM 37.4 °F 30.8 °F 33.8 °F 87% 29.73 in 10.0 mi NE 9.2 mph - N/A   Overcast
11:15 PM 37.4 °F 32.1 °F 32.0 °F 81% 29.73 in 5.0 mi NW 6.9 mph 17.3 mph 0.04 in   Overcast
11:35 PM 37.4 °F 31.4 °F 32.0 °F 81% 29.72 in 10.0 mi WNW 8.1 mph - 0.04 in   Overcast
11:55 PM 37.4 °F 32.8 °F 32.0 °F 81% 29.72 in 10.0 mi NW 5.8 mph - 0.04 in   Overcast